Sydney, New South Wales

7:28 AM AEDT on February 12, 2016 (GMT +1100)
Sydney

Weather History for 94767 - May, 2013

Change the Weather History Date:

Sunday, May 26, 2013

  Actual Average Record
Temperature  
Mean Temperature 58 °F -  
Max Temperature 68 °F 64 °F - ()
Min Temperature 47 °F 48 °F - ()
Degree Days  
Heating Degree Days 8    
Growing Degree Days 8 (Base 50)    
Moisture  
Dew Point 46 °F    
Average Humidity 65    
Maximum Humidity 88    
Minimum Humidity 31    
Precipitation  
Precipitation 0.00 in 0.16 in - ()
Sea Level Pressure  
Sea Level Pressure 30.23 in    
Wind  
Wind Speed 7 mph ()    
Max Wind Speed 12 mph    
Max Gust Speed -    
Visibility 8.5 miles    
Events      
T = Trace of Precipitation, MM = Missing Value Source: Averaged Metar Reports

Daily Weather History Graph

Daily Weather History Graph

Search for Another Location

Airport or City:

Trip Planner

Search our weather history database for the weather conditions in past years. The results will help you decide how hot, cold, wet, or windy it might be!

Date:

Astronomy

May. 26, 2013 Rise Set
Actual Time 6:48 AM AEST 4:56 PM AEST
Civil Twilight 6:20 AM AEST 5:23 PM AEST
Nautical Twilight 5:50 AM AEST 5:54 PM AEST
Astronomical Twilight 5:20 AM AEST 6:24 PM AEST
Moon 6:06 PM AEST (5/26) 7:32 AM AEST (5/26)
Length of Visible Light 11h 02m
Length of Day
10h 08m
Full, 99% of the Moon is Illuminated
May 26
Full
Jun 1
Last Quarter
Jun 9
New
Jun 17
First Quarter
Jun 23
Full

Hourly Weather History & Observations

Time (AEST) Temp. Dew Point Humidity Pressure Visibility Wind Dir Wind Speed Gust Speed Precip Events Conditions
12:00 AM 54 °F 47 °F 72% 30.25 in 16 mi North 8.1 mph - -   Partly Cloudy
12:00 AM 53.6 °F 48.2 °F 82% 30.24 in - North 8.1 mph - N/A   Clear
12:30 AM 53.6 °F 46.4 °F 77% 30.21 in - NW 6.9 mph - N/A   Clear
1:00 AM 52 °F 46 °F 73% 30.24 in - NNW 5.8 mph - -  
1:00 AM 51.8 °F 46.4 °F 82% 30.21 in - NNW 5.8 mph - N/A   Clear
1:30 AM 50.0 °F 44.6 °F 82% 30.21 in - NW 8.1 mph - N/A   Clear
2:00 AM 50.0 °F 42.8 °F 76% 30.21 in - NW 10.4 mph - N/A   Clear
2:30 AM 51.8 °F 41.0 °F 67% 30.21 in - WNW 10.4 mph - N/A   Clear
3:00 AM 49 °F 41 °F 64% 30.22 in 19 mi NW 10.4 mph - -   Partly Cloudy
3:00 AM 50.0 °F 41.0 °F 71% 30.21 in - NW 10.4 mph - N/A   Clear
3:30 AM 50.0 °F 41.0 °F 71% 30.21 in - NW 11.5 mph - N/A   Clear
4:00 AM 49 °F 42 °F 68% 30.23 in - NW 11.5 mph - -  
4:00 AM 48.2 °F 41.0 °F 76% 30.21 in - NW 11.5 mph - N/A   Clear
4:30 AM 48.2 °F 41.0 °F 76% 30.21 in - NW 11.5 mph - N/A   Clear
5:00 AM 48.2 °F 41.0 °F 76% 30.21 in - NW 11.5 mph - N/A   Clear
5:30 AM 48.2 °F 41.0 °F 76% 30.21 in - NW 8.1 mph - N/A   Clear
6:00 AM 48 °F 40 °F 67% 30.25 in 19 mi NW 8.1 mph - -   Partly Cloudy
6:00 AM 48.2 °F 41.0 °F 76% 30.24 in - NW 8.1 mph - N/A   Clear
6:30 AM 48.2 °F 39.2 °F 71% 30.24 in - NW 10.4 mph - N/A   Clear
7:00 AM 48 °F 39 °F 61% 30.27 in - NW 10.4 mph - -  
7:00 AM 48.2 °F 39.2 °F 71% 30.24 in - NW 10.4 mph - N/A   Clear
7:30 AM 50.0 °F 39.2 °F 66% 30.24 in - NW 10.4 mph - N/A   Clear
8:00 AM 51.8 °F 39.2 °F 62% 30.27 in - NW 10.4 mph - N/A   Clear
8:30 AM 53.6 °F 39.2 °F 58% 30.27 in - NW 9.2 mph - N/A   Clear
9:00 AM 56 °F 39 °F 42% 30.29 in 12 mi NW 9.2 mph - -   Haze
9:00 AM 55.4 °F 39.2 °F 54% 30.27 in 6.2 mi NW 9.2 mph - N/A   Partly Cloudy
9:30 AM 57.2 °F 41.0 °F 55% 30.27 in 6.2 mi WNW 10.4 mph - N/A   Partly Cloudy
10:00 AM 59 °F 40 °F 37% 30.30 in - WNW 10.4 mph - -  
10:00 AM 59.0 °F 39.2 °F 48% 30.27 in 6.2 mi WNW 10.4 mph - N/A   Partly Cloudy
10:30 AM 62.6 °F 39.2 °F 42% 30.27 in 6.2 mi WNW 10.4 mph - N/A   Partly Cloudy
11:00 AM 62.6 °F 41.0 °F 45% 30.27 in - WNW 9.2 mph - N/A   Clear
11:30 AM 66.2 °F 41.0 °F 40% 30.24 in - WNW 8.1 mph - N/A   Clear
12:00 PM 67 °F 44 °F 31% 30.25 in 12 mi WNW 6.9 mph - -   Haze
12:00 PM 66.2 °F 42.8 °F 43% 30.24 in - WNW 6.9 mph - N/A   Clear
12:30 PM 68.0 °F 44.6 °F 43% 30.24 in - WNW 5.8 mph - N/A   Clear
1:00 PM 66 °F 48 °F 41% 30.24 in - West 4.6 mph - -  
1:00 PM 66.2 °F 48.2 °F 52% 30.21 in 6.2 mi West 4.6 mph - N/A   Partly Cloudy
1:30 PM 66.2 °F 46.4 °F 49% 30.21 in 6.2 mi SSW 5.8 mph - N/A   Partly Cloudy
2:00 PM 66.2 °F 48.2 °F 52% 30.21 in 6.2 mi SSW 5.8 mph - N/A   Partly Cloudy
2:30 PM 66.2 °F 50.0 °F 56% 30.21 in 6.2 mi ESE 4.6 mph - N/A   Partly Cloudy
3:00 PM 65 °F 52 °F 53% 30.21 in 19 mi SSE 4.6 mph - -   Partly Cloudy
3:00 PM 66.2 °F 51.8 °F 60% 30.21 in 6.2 mi SSE 4.6 mph - N/A   Partly Cloudy
3:30 PM 66.2 °F 50.0 °F 56% 30.21 in 6.2 mi SSE 5.8 mph - N/A   Partly Cloudy
4:00 PM 66 °F 48 °F 42% 30.22 in - SSE 5.8 mph - -  
4:00 PM 66.2 °F 48.2 °F 52% 30.21 in 6.2 mi SSE 5.8 mph - N/A   Partly Cloudy
4:30 PM 64.4 °F 50.0 °F 59% 30.21 in 6.2 mi SSE 5.8 mph - N/A   Partly Cloudy
5:00 PM 62.6 °F 51.8 °F 68% 30.21 in 6.2 mi SSE 5.8 mph - N/A   Partly Cloudy
5:30 PM 62.6 °F 53.6 °F 72% 30.21 in 6.2 mi SSE 5.8 mph - N/A   Partly Cloudy
6:00 PM 62 °F 53 °F 66% 30.22 in 16 mi ESE 1.2 mph - -   Partly Cloudy
6:00 PM 62.6 °F 53.6 °F 72% 30.21 in 6.2 mi ESE 1.2 mph - N/A   Partly Cloudy
6:30 PM 62.6 °F 51.8 °F 68% 30.21 in 6.2 mi Calm Calm - N/A   Partly Cloudy
7:00 PM 61 °F 53 °F 67% 30.24 in - Calm Calm - -  
7:00 PM 60.8 °F 53.6 °F 77% 30.21 in 6.2 mi Calm Calm - N/A   Partly Cloudy
7:30 PM 60.8 °F 53.6 °F 77% 30.24 in 6.2 mi Calm Calm - N/A   Partly Cloudy
8:00 PM 59.0 °F 51.8 °F 77% 30.24 in 6.2 mi West 5.8 mph - N/A   Partly Cloudy
8:30 PM 59.0 °F 51.8 °F 77% 30.24 in 6.2 mi WSW 5.8 mph - N/A   Partly Cloudy
9:00 PM 57 °F 51 °F 75% 30.25 in 14 mi West 4.6 mph - -   Partly Cloudy
9:00 PM 57.2 °F 51.8 °F 82% 30.24 in 6.2 mi West 4.6 mph - N/A   Partly Cloudy
9:30 PM 57.2 °F 51.8 °F 82% 30.24 in 6.2 mi West 4.6 mph - N/A   Partly Cloudy
10:00 PM 57 °F 51 °F 74% 30.27 in - Calm Calm - -  
10:00 PM 57.2 °F 51.8 °F 82% 30.24 in 6.2 mi Calm Calm - N/A   Partly Cloudy
10:30 PM 55.4 °F 50.0 °F 82% 30.24 in 6.2 mi WNW 3.5 mph - N/A   Partly Cloudy
11:00 PM 53.6 °F 50.0 °F 88% 30.24 in 6.2 mi North 6.9 mph - N/A   Partly Cloudy
11:30 PM 53.6 °F 50.0 °F 88% 30.24 in 6.2 mi North 6.9 mph - N/A   Partly Cloudy